Wind_Speed
13 14 14 12 10 9 11 10 10 11 12 16 18 18 17 17 16 16 15 14 14 12 12 13 14 14 14 15 15 15 15 17 17 18 19 19 21 20 19 20 22 23 24
12 13 16 13 11 10 10 8 8 9 9 13 14 15 14 14 15 14 14 13 11 10 11 12 12 13 14 15 15 15 16 16 18 19 18 19 19 17 17 18 20 21 23
11 12 15 15 13 11 9 7 7 7 8 11 12 13 12 12 13 13 13 12 9 10 11 11 11 12 13 14 14 15 16 18 19 20 21 19 17 18 18 21 24 25 24
12 13 15 15 13 11 9 8 6 7 7 9 10 11 11 11 11 11 11 9 9 9 9 10 10 12 13 13 14 16 17 18 21 23 20 17 19 20 22 25 26 25 25
12 13 14 15 12 11 10 8 8 8 8 9 10 10 10 10 10 10 9 8 8 8 8 9 10 11 12 13 15 17 18 20 24 24 18 20 21 23 25 26 24 24 22
13 13 13 14 13 11 12 10 10 10 10 10 10 9 9 9 9 10 9 8 8 8 8 9 10 11 13 15 16 18 18 22 25 20 20 22 23 24 24 24 23 21 19
15 14 14 14 12 11 12 12 11 11 11 10 10 10 10 10 11 10 8 8 7 7 7 8 10 11 12 15 18 18 21 24 22 19 21 23 25 24 23 21 19 19 19
18 18 16 15 12 11 12 12 12 12 12 11 11 11 12 13 12 10 7 5 4 5 6 7 8 10 13 17 17 18 21 24 20 18 21 23 24 22 21 19 18 19 19
19 22 19 17 13 9 11 12 12 13 13 13 13 13 14 14 11 7 4 5 8 8 5 5 6 10 13 17 16 18 22 22 18 18 20 22 21 21 20 18 18 18 17
17 19 20 18 14 10 11 13 13 14 14 15 14 15 15 13 9 5 3 4 9 9 6 5 6 9 14 15 15 20 22 20 16 17 19 20 20 20 20 17 17 16 16
20 16 19 23 17 13 13 15 15 15 16 16 16 16 15 12 7 3 2 6 8 7 6 6 8 10 13 13 15 21 21 17 14 16 17 18 19 20 19 17 16 16 16
28 23 18 22 21 17 16 17 16 16 17 17 18 17 15 11 7 4 2 8 9 7 6 7 9 12 11 12 16 19 18 12 12 14 16 16 18 18 17 17 15 16 16
35 32 19 22 23 22 21 19 19 18 18 20 20 18 14 10 7 5 4 7 9 10 6 8 9 10 12 13 17 17 14 11 12 13 15 16 17 16 16 15 14 15 15
35 36 32 25 23 25 24 22 20 20 21 21 21 19 15 11 8 6 4 6 7 10 9 9 10 11 12 13 17 16 13 10 11 13 13 15 15 15 15 14 12 14 15
32 39 38 36 28 28 25 24 23 22 21 22 22 20 17 13 10 8 5 5 6 8 11 12 12 11 11 13 15 15 12 10 10 12 13 15 15 15 14 14 11 13 14
27 32 36 34 31 34 33 27 26 24 24 24 24 22 18 15 12 8 7 6 7 8 10 12 12 10 11 13 12 12 11 11 10 11 12 14 15 15 14 13 10 12 13
29 37 39 38 35 37 37 34 31 28 27 27 26 23 21 18 14 10 10 8 9 9 9 11 11 10 11 12 10 10 12 11 10 11 12 13 15 16 15 13 12 11 13
32 38 41 43 43 41 39 36 35 32 30 29 28 26 23 20 16 12 11 10 10 10 9 11 11 12 12 11 10 8 11 11 11 11 12 13 14 16 16 14 14 12 13
33 40 40 41 46 48 45 41 37 36 34 31 29 27 25 23 19 15 12 12 11 10 10 12 11 13 13 12 9 9 9 10 11 10 11 13 14 15 17 15 14 14 13
36 37 42 42 50 52 52 45 42 39 37 34 31 29 27 25 22 18 14 13 13 10 10 12 12 13 14 13 10 8 8 10 10 10 11 12 13 15 17 16 14 15 14
38 40 38 41 41 43 46 53 44 39 37 36 34 32 29 26 23 21 17 14 15 13 11 13 14 14 15 14 12 9 8 9 10 10 11 12 13 16 18 17 15 15 14
38 40 42 43 43 41 44 45 47 44 42 41 40 36 32 29 26 23 20 16 14 14 13 15 16 16 16 15 14 11 8 9 10 11 11 11 13 16 18 18 15 15 13
39 40 41 44 45 44 41 51 45 52 51 48 43 38 34 32 29 26 23 18 15 14 14 16 18 17 18 16 15 13 9 9 10 11 11 12 13 15 17 17 15 15 12
40 42 45 44 46 47 47 45 53 43 55 49 43 40 38 36 32 29 26 21 18 16 16 17 18 18 19 17 16 14 11 10 10 11 12 11 13 15 17 16 15 13 11
44 41 44 46 45 46 49 52 47 46 50 54 50 49 44 39 36 35 30 26 21 19 17 17 19 18 19 19 17 15 13 12 11 11 12 12 13 15 16 16 15 12 11
46 45 42 43 44 46 47 51 53 40 34 51 56 51 48 43 39 38 34 29 26 23 19 17 19 19 20 19 20 16 15 14 13 11 12 11 13 15 16 15 14 12 12
Wind_Direction
155 143 135 132 125 117 112 110 108 103 102 100 98 97 97 97 92 89 89 85 82 79 75 63 52 43 32 26 24 22 18 15 12 4 356 349 346 345 342 334 330 325 324
159 153 139 136 134 131 124 126 122 117 114 107 103 100 98 96 95 91 88 87 80 75 64 58 45 33 23 17 16 15 10 7 359 354 349 346 346 345 341 332 331 331 327
166 168 151 140 138 134 129 132 134 130 130 119 112 109 106 101 98 94 91 86 78 60 51 45 35 24 18 10 10 6 3 359 353 352 346 350 355 352 342 331 331 332 331
184 181 172 154 151 143 140 146 151 146 148 133 127 120 116 109 104 98 91 87 77 61 45 36 26 18 10 4 3 359 356 353 351 347 348 351 348 344 335 335 334 332 325
191 189 189 172 165 162 163 163 164 156 162 155 140 131 119 110 103 95 93 83 69 59 42 27 18 12 4 357 357 353 352 350 346 344 346 343 341 337 338 336 338 340 346
208 194 191 185 176 175 175 174 169 163 169 168 152 142 128 117 103 96 90 82 66 51 35 19 12 8 357 351 350 349 348 345 342 345 343 342 337 335 337 343 348 359 10
227 213 197 191 180 178 176 175 172 168 172 171 159 149 138 127 117 108 97 81 62 43 23 10 6 359 354 346 347 349 346 341 341 345 343 339 337 339 345 351 359 12 18
241 222 208 194 179 183 182 180 177 171 173 174 166 159 145 135 127 115 101 77 40 0 350 355 357 349 350 346 347 346 338 342 344 344 345 340 344 348 352 0 7 14 14
242 223 211 194 175 190 191 187 185 178 176 176 172 164 153 146 139 127 96 37 351 317 321 331 340 340 344 343 344 339 340 342 343 346 347 344 351 354 358 5 8 10 13
240 232 222 211 191 188 202 196 193 187 183 178 175 169 165 162 152 131 73 352 335 302 296 304 316 335 339 336 336 340 338 337 345 351 350 349 353 357 2 8 8 10 10
234 237 233 222 209 201 206 205 198 191 189 181 181 180 178 174 163 135 42 349 340 303 290 295 313 329 333 332 336 337 337 337 348 350 349 353 355 1 6 7 11 10 10
228 225 238 230 222 216 213 208 202 195 190 185 184 188 189 185 177 171 325 348 356 322 289 299 309 323 330 328 331 331 333 334 340 348 348 352 357 1 4 6 12 10 9
226 229 229 240 229 220 217 211 204 199 193 190 188 195 198 200 197 207 306 348 0 342 304 294 311 319 325 321 326 327 325 332 339 348 347 351 357 0 0 7 12 9 9
237 231 223 225 236 219 214 210 208 204 199 196 196 201 205 212 215 232 294 333 348 352 318 299 312 316 315 317 320 322 324 329 337 342 343 350 356 357 0 3 8 6 9
229 234 232 232 232 225 217 211 206 206 204 200 202 209 213 218 226 241 283 312 333 337 335 303 303 303 305 312 320 319 316 320 332 336 342 348 351 355 357 0 1 2 2
233 230 230 224 226 232 227 217 210 206 205 203 205 211 221 225 231 243 276 292 309 322 335 321 303 299 305 311 316 314 311 314 325 332 345 347 349 350 353 355 347 353 352
225 225 227 222 223 225 224 224 223 208 207 207 208 211 221 229 232 242 270 278 300 307 316 323 308 305 311 314 313 315 311 313 321 333 346 344 346 345 348 347 342 342 341
230 231 227 225 223 220 222 218 215 211 208 209 211 214 218 229 230 240 254 270 285 291 299 312 308 304 308 311 307 303 307 314 324 337 344 341 343 345 344 339 336 332 333
233 234 228 223 222 219 219 218 216 213 210 209 211 212 217 227 230 239 245 263 278 283 291 298 299 299 307 308 296 292 304 313 324 335 337 337 342 345 340 335 331 332 330
232 238 234 228 221 217 217 217 216 214 211 209 211 215 218 223 231 237 239 251 266 280 292 289 292 294 304 303 286 285 299 311 320 329 333 335 342 342 339 336 329 330 332
228 233 237 245 244 226 202 219 216 214 213 211 212 215 218 220 230 234 237 243 258 275 287 287 286 291 296 298 280 277 294 305 313 323 327 335 342 342 339 338 332 330 333
234 233 235 240 244 235 224 210 216 214 215 213 212 212 214 220 225 231 234 237 254 266 284 290 279 286 291 290 276 270 285 298 304 312 317 331 339 340 337 338 335 333 337
233 235 236 238 239 248 233 222 221 217 218 214 214 211 214 220 222 226 231 237 246 261 279 286 272 277 282 283 271 266 272 283 295 302 311 324 334 337 336 339 337 335 340
232 233 236 234 236 236 244 240 223 224 219 215 215 213 217 219 222 225 229 236 243 263 271 280 264 267 278 280 265 261 265 274 287 299 307 317 328 337 337 340 337 335 340
230 233 234 239 236 236 238 246 247 237 216 210 212 213 217 218 220 224 227 233 241 254 269 273 256 262 275 277 264 256 259 267 280 290 299 315 326 334 338 340 336 331 335
233 234 235 238 241 238 236 241 251 247 242 219 214 213 216 218 222 225 229 232 240 249 261 272 259 261 270 275 258 249 257 262 274 285 294 309 322 328 335 335 332 327 327
Height
5880 5879 5878 5879 5881 5883 5884 5885 5886 5886 5885 5883 5884 5884 5884 5884 5885 5885 5885 5887 5887 5887 5887 5886 5886 5885 5884 5883 5882 5881 5879 5877 5876 5874 5872 5870 5868 5866 5863 5860 5858 5855 5852
5879 5880 5879 5880 5881 5882 5883 5884 5885 5886 5886 5884 5885 5885 5885 5885 5886 5886 5887 5887 5888 5888 5888 5886 5886 5886 5885 5884 5882 5881 5880 5878 5876 5874 5872 5870 5867 5865 5862 5859 5856 5853 5850
5878 5880 5879 5880 5882 5882 5883 5884 5885 5885 5886 5885 5885 5885 5886 5887 5887 5887 5888 5888 5888 5888 5888 5887 5887 5886 5885 5884 5882 5881 5879 5877 5875 5873 5870 5868 5866 5864 5861 5858 5855 5851 5848
5877 5878 5878 5879 5881 5881 5883 5883 5885 5885 5886 5886 5885 5886 5886 5887 5888 5889 5889 5889 5888 5889 5888 5888 5887 5886 5885 5883 5882 5880 5878 5876 5874 5872 5869 5867 5864 5862 5859 5855 5851 5848 5844
5875 5877 5878 5878 5879 5881 5882 5883 5883 5884 5885 5885 5885 5886 5886 5887 5888 5889 5889 5889 5889 5889 5888 5888 5887 5886 5885 5883 5881 5880 5878 5876 5873 5871 5868 5866 5863 5859 5856 5852 5848 5844 5840
5875 5875 5876 5877 5878 5880 5881 5882 5882 5882 5883 5885 5885 5886 5886 5887 5888 5890 5889 5889 5889 5889 5888 5887 5887 5886 5884 5883 5881 5880 5877 5875 5873 5870 5867 5865 5862 5858 5854 5850 5846 5842 5839
5875 5875 5875 5875 5877 5879 5879 5880 5881 5881 5882 5884 5884 5885 5886 5887 5888 5889 5889 5889 5889 5888 5888 5887 5886 5885 5884 5882 5881 5879 5876 5874 5871 5869 5866 5864 5861 5857 5853 5849 5845 5841 5838
5873 5873 5874 5874 5875 5877 5878 5878 5879 5880 5881 5882 5883 5884 5885 5886 5887 5888 5888 5888 5888 5888 5887 5886 5885 5884 5883 5882 5879 5878 5876 5873 5870 5868 5866 5863 5859 5856 5852 5848 5845 5840 5838
5870 5871 5872 5872 5873 5875 5876 5877 5878 5878 5879 5880 5881 5883 5884 5885 5886 5887 5888 5888 5887 5886 5886 5885 5884 5882 5882 5880 5878 5877 5874 5872 5869 5867 5865 5862 5859 5855 5852 5848 5845 5841 5838
5867 5869 5870 5871 5871 5873 5875 5876 5877 5877 5878 5879 5880 5881 5883 5884 5885 5886 5887 5887 5886 5884 5884 5884 5883 5882 5881 5879 5877 5875 5873 5871 5869 5866 5864 5862 5859 5855 5852 5849 5846 5842 5839
5863 5865 5867 5868 5869 5871 5872 5874 5875 5876 5877 5878 5879 5880 5881 5882 5884 5885 5885 5885 5884 5883 5882 5882 5882 5881 5879 5877 5876 5874 5872 5870 5868 5866 5864 5861 5858 5854 5852 5849 5846 5843 5839
5858 5860 5862 5865 5867 5868 5870 5872 5873 5874 5875 5876 5878 5879 5880 5881 5882 5883 5884 5883 5882 5881 5880 5880 5880 5879 5877 5876 5874 5873 5871 5869 5867 5865 5863 5860 5857 5854 5851 5849 5846 5843 5840
5849 5854 5857 5860 5863 5865 5867 5869 5870 5872 5872 5874 5876 5877 5878 5880 5880 5881 5882 5881 5879 5879 5878 5878 5878 5877 5876 5875 5873 5871 5869 5867 5866 5864 5862 5859 5856 5854 5851 5848 5845 5843 5840
5845 5848 5852 5855 5859 5861 5863 5865 5867 5869 5870 5872 5873 5875 5876 5877 5878 5880 5880 5879 5878 5877 5877 5877 5876 5875 5874 5873 5872 5870 5868 5867 5864 5863 5861 5858 5856 5853 5851 5848 5846 5843 5840
5835 5841 5845 5849 5854 5857 5858 5860 5862 5865 5867 5869 5871 5873 5873 5874 5876 5878 5878 5877 5876 5876 5875 5875 5874 5873 5872 5871 5870 5869 5867 5865 5863 5862 5860 5858 5855 5852 5850 5847 5845 5843 5840
5829 5834 5839 5844 5848 5851 5854 5856 5858 5860 5863 5865 5867 5869 5871 5871 5873 5875 5876 5875 5875 5874 5874 5873 5873 5872 5871 5870 5868 5867 5865 5863 5862 5861 5859 5857 5854 5851 5848 5846 5844 5842 5840
5822 5827 5832 5837 5841 5845 5848 5851 5854 5855 5859 5861 5863 5866 5867 5868 5870 5872 5873 5873 5872 5872 5871 5871 5871 5870 5869 5867 5866 5866 5864 5863 5861 5859 5857 5855 5852 5850 5847 5845 5842 5841 5839
5815 5819 5822 5827 5833 5838 5843 5845 5848 5851 5853 5856 5859 5862 5864 5865 5867 5869 5870 5871 5870 5870 5869 5869 5868 5868 5867 5865 5864 5863 5863 5862 5860 5858 5856 5854 5851 5849 5846 5843 5841 5839 5837
5809 5811 5814 5820 5826 5831 5835 5838 5842 5845 5848 5851 5855 5858 5860 5862 5863 5865 5867 5867 5867 5867 5867 5866 5865 5865 5864 5863 5862 5861 5861 5860 5859 5856 5855 5852 5850 5848 5845 5842 5841 5838 5836
5802 5803 5805 5810 5817 5821 5826 5831 5834 5840 5843 5847 5850 5854 5856 5858 5860 5861 5863 5864 5864 5863 5863 5863 5862 5862 5861 5860 5859 5859 5858 5858 5856 5855 5854 5851 5849 5846 5844 5841 5839 5837 5835
5795 5798 5800 5802 5807 5812 5818 5823 5829 5835 5838 5841 5845 5848 5852 5854 5856 5857 5859 5860 5860 5859 5859 5859 5859 5858 5858 5858 5857 5857 5856 5856 5855 5853 5852 5850 5847 5845 5842 5839 5837 5835 5833
5788 5791 5794 5796 5798 5802 5809 5814 5820 5826 5830 5833 5836 5841 5846 5849 5851 5853 5854 5855 5857 5856 5856 5855 5855 5855 5855 5854 5854 5854 5854 5855 5853 5851 5850 5848 5846 5843 5841 5838 5836 5834 5832
5780 5784 5787 5789 5792 5795 5798 5802 5810 5817 5820 5825 5831 5836 5841 5843 5847 5848 5850 5851 5852 5852 5852 5852 5852 5851 5852 5851 5851 5852 5851 5851 5851 5850 5849 5847 5845 5842 5839 5836 5834 5833 5831
5772 5775 5778 5780 5784 5789 5793 5794 5802 5803 5815 5821 5825 5830 5834 5837 5842 5843 5845 5847 5847 5848 5848 5848 5848 5848 5848 5848 5848 5848 5848 5849 5848 5848 5847 5845 5843 5841 5838 5834 5832 5830 5828
5762 5767 5770 5773 5776 5780 5785 5786 5790 5798 5804 5808 5814 5820 5826 5830 5835 5837 5839 5842 5843 5844 5844 5844 5844 5844 5845 5844 5845 5845 5845 5846 5845 5845 5845 5844 5841 5838 5836 5833 5830 5829 5827
5753 5758 5763 5766 5770 5773 5777 5780 5782 5787 5794 5801 5806 5812 5819 5823 5828 5832 5834 5836 5838 5839 5840 5840 5840 5840 5841 5840 5841 5842 5843 5843 5843 5843 5842 5841 5838 5836 5834 5831 5828 5826 5824